Torna al catalogo

COSMOS 1579 COOLANT

LostLEO
NORAD 26634·DEBRIS·🇷🇺 Russia

Lanciato Jun 29, 1984 da Baikonur Cosmodrome

Loading…

Prossimi Passaggi (prossime 24 ore)

TLE

ObsoletoSource: Space-Track

Epoca: Mar 11, 2019, 01:55 UTC

1 26634U 84069R   19070.08010605 -.00000091  00000-0  00000+0 0  9995
2 26634  64.9771 319.8195 0057547 199.0543 160.8377 13.91218533956730

Traccia COSMOS 1579 COOLANT in tempo reale con AllMySat

Download on the App Store